Time,TemperatureF,DewpointF,PressureIn,WindDirection,WindDirectionDegrees,WindSpeedMPH,WindSpeedGustMPH,Humidity,HourlyPrecipIn,Conditions,Clouds,dailyrainin,SoftwareType,DateUTC
2013-07-05 00:02:00,75.0,49.0,-100.00,West,281,5.0,11.0,40,-99.99,,,-99.99,,2013-07-05 07:02:00,
2013-07-05 00:12:00,75.0,49.0,-100.00,West,281,5.0,11.0,40,-99.99,,,-99.99,,2013-07-05 07:12:00,
2013-07-05 00:33:00,75.0,50.0,-100.00,West,280,2.0,6.0,41,-99.99,,,-99.99,,2013-07-05 07:33:00,
2013-07-05 00:43:00,74.0,49.0,-100.00,WNW,282,3.0,8.0,42,-99.99,,,-99.99,,2013-07-05 07:43:00,
2013-07-05 00:53:00,74.0,49.0,-100.00,WNW,282,3.0,8.0,42,-99.99,,,-99.99,,2013-07-05 07:53:00,
2013-07-05 01:02:00,74.0,49.0,-100.00,WNW,282,3.0,8.0,42,-99.99,,,-99.99,,2013-07-05 08:02:00,
2013-07-05 08:13:00,77.0,49.0,-100.00,SE,126,1.0,4.0,37,-99.99,,,-99.99,,2013-07-05 15:13:00,
2013-07-05 08:22:00,75.0,52.0,-100.00,NE,52,2.0,5.0,44,-99.99,,,-99.99,,2013-07-05 15:22:00,
2013-07-05 08:33:00,75.0,52.0,-100.00,NE,52,2.0,5.0,44,-99.99,,,-99.99,,2013-07-05 15:33:00,
2013-07-05 08:43:00,75.0,51.0,-100.00,NNE,17,3.0,8.0,43,-99.99,,,-99.99,,2013-07-05 15:43:00,
2013-07-05 08:53:00,75.0,51.0,-100.00,NNE,17,3.0,8.0,43,-99.99,,,-99.99,,2013-07-05 15:53:00,
2013-07-05 09:01:00,77.0,51.0,-100.00,ENE,61,4.0,11.0,40,-99.99,,,-99.99,,2013-07-05 16:01:00,
2013-07-05 09:11:00,77.0,51.0,-100.00,ENE,61,4.0,11.0,40,-99.99,,,-99.99,,2013-07-05 16:11:00,
2013-07-05 09:22:00,77.0,51.0,-100.00,East,96,3.0,6.0,40,-99.99,,,-99.99,,2013-07-05 16:22:00,
2013-07-05 09:33:00,77.0,51.0,-100.00,East,96,3.0,6.0,40,-99.99,,,-99.99,,2013-07-05 16:33:00,
2013-07-05 09:44:00,80.0,51.0,-100.00,ENE,73,4.0,10.0,36,-99.99,,,-99.99,,2013-07-05 16:44:00,
2013-07-05 09:53:00,80.0,51.0,-100.00,ENE,73,4.0,10.0,36,-99.99,,,-99.99,,2013-07-05 16:53:00,
2013-07-05 10:01:00,80.0,52.0,-100.00,ENE,72,4.0,9.0,38,-99.99,,,-99.99,,2013-07-05 17:01:00,
2013-07-05 10:12:00,80.0,52.0,-100.00,ENE,72,4.0,9.0,38,-99.99,,,-99.99,,2013-07-05 17:12:00,
2013-07-05 10:42:00,85.0,44.0,-100.00,SSW,195,4.0,11.0,24,-99.99,,,-99.99,,2013-07-05 17:42:00,
2013-07-05 10:53:00,85.0,44.0,-100.00,SSW,195,4.0,11.0,24,-99.99,,,-99.99,,2013-07-05 17:53:00,
2013-07-05 11:01:00,85.0,44.0,-100.00,SSW,195,4.0,11.0,24,-99.99,,,-99.99,,2013-07-05 18:01:00,
2013-07-05 11:11:00,86.0,35.0,-100.00,ENE,73,5.0,15.0,16,-99.99,,,-99.99,,2013-07-05 18:11:00,
2013-07-05 11:22:00,86.0,35.0,-100.00,ENE,73,5.0,15.0,16,-99.99,,,-99.99,,2013-07-05 18:22:00,
2013-07-05 13:53:00,89.0,28.0,-100.00,North,-999,-999.0,-999.0,11,-99.99,,,-99.99,,2013-07-05 20:53:00,
2013-07-05 14:01:00,89.0,28.0,-100.00,SSW,196,7.0,18.0,11,-99.99,,,-99.99,,2013-07-05 21:01:00,
2013-07-05 14:11:00,89.0,28.0,-100.00,SSW,196,7.0,18.0,11,-99.99,,,-99.99,,2013-07-05 21:11:00,
2013-07-05 14:53:00,88.0,27.0,-100.00,SSE,158,8.0,18.0,11,-99.99,,,-99.99,,2013-07-05 21:53:00,
2013-07-05 15:11:00,88.0,25.0,-100.00,South,176,11.0,20.0,10,-99.99,,,-99.99,,2013-07-05 22:11:00,
2013-07-05 15:21:00,89.0,28.0,-100.00,SSE,151,6.0,18.0,11,-99.99,,,-99.99,,2013-07-05 22:21:00,
2013-07-05 15:33:00,89.0,28.0,-100.00,SSE,151,6.0,18.0,11,-99.99,,,-99.99,,2013-07-05 22:33:00,
2013-07-05 15:43:00,89.0,28.0,-100.00,SSE,147,6.0,20.0,11,-99.99,,,-99.99,,2013-07-05 22:43:00,
2013-07-05 15:53:00,89.0,28.0,-100.00,SSE,147,6.0,20.0,11,-99.99,,,-99.99,,2013-07-05 22:53:00,
2013-07-05 16:02:00,89.0,28.0,-100.00,SSE,147,6.0,20.0,11,-99.99,,,-99.99,,2013-07-05 23:02:00,
2013-07-05 16:23:00,89.0,28.0,-100.00,SSE,161,4.0,11.0,11,-99.99,,,-99.99,,2013-07-05 23:23:00,
2013-07-05 17:22:00,86.0,25.0,-100.00,SSE,168,9.0,21.0,11,-99.99,,,-99.99,,2013-07-06 00:22:00,
2013-07-05 17:33:00,86.0,25.0,-100.00,SSE,168,9.0,21.0,11,-99.99,,,-99.99,,2013-07-06 00:33:00,
2013-07-05 17:43:00,87.0,24.0,-100.00,North,-999,-999.0,-999.0,10,-99.99,,,-99.99,,2013-07-06 00:43:00,
2013-07-05 17:53:00,87.0,24.0,-100.00,SW,226,2.0,8.0,10,-99.99,,,-99.99,,2013-07-06 00:53:00,
2013-07-05 18:02:00,87.0,24.0,-100.00,SW,226,2.0,8.0,10,-99.99,,,-99.99,,2013-07-06 01:02:00,
2013-07-05 18:12:00,85.0,22.0,-100.00,SW,232,6.0,17.0,10,-99.99,,,-99.99,,2013-07-06 01:12:00,
2013-07-05 18:22:00,85.0,22.0,-100.00,SW,232,6.0,17.0,10,-99.99,,,-99.99,,2013-07-06 01:22:00,
2013-07-05 18:33:00,84.0,22.0,-100.00,SW,236,6.0,15.0,10,-99.99,,,-99.99,,2013-07-06 01:33:00,
2013-07-05 18:42:00,84.0,22.0,-100.00,SW,236,6.0,15.0,10,-99.99,,,-99.99,,2013-07-06 01:42:00,
2013-07-05 18:53:00,84.0,22.0,-100.00,SW,236,6.0,15.0,10,-99.99,,,-99.99,,2013-07-06 01:53:00,